Torna al catalogo

CZ-6A DEB

AttivoSSO
NORAD 56666·DEBRIS·🇨🇳 China

Lanciato Nov 11, 2022 da Taiyuan Satellite Launch Center

Loading…

Prossimi Passaggi (prossime 24 ore)

TLE

In scadenzaSource: Space-Track

Epoca: Sep 9, 2026, 23:03 UTC

1 56666U 22151AGS 26252.96042940  .00000971  00000-0  28463-3 0  9994
2 56666  98.7243 315.7291 0074699  31.9398 328.6288 14.44626400177632

Traccia CZ-6A DEB in tempo reale con AllMySat

Download on the App Store